TimeCST,TemperatureF,Dew PointF,Humidity,Sea Level PressureIn,VisibilityMPH,Wind Direction,Wind SpeedMPH,Gust SpeedMPH,PrecipitationIn,Events,Conditions,WindDirDegrees,DateUTC
12:50 AM,46.4,37.4,71,30.16,10.0,SW,8.1,-,N/A,,Clear,220,2013-12-17 06:50:00
1:50 AM,46.4,37.4,71,30.16,10.0,SW,8.1,-,N/A,,Clear,220,2013-12-17 07:50:00
2:15 AM,44.6,37.4,76,30.16,10.0,SW,6.9,-,N/A,,Clear,220,2013-12-17 08:15:00
2:35 AM,42.8,35.6,76,30.16,10.0,SW,3.5,-,N/A,,Clear,220,2013-12-17 08:35:00
2:55 AM,42.8,35.6,76,30.16,10.0,SW,5.8,-,N/A,,Clear,230,2013-12-17 08:55:00
3:15 AM,42.8,35.6,76,30.16,10.0,SSW,4.6,-,N/A,,Clear,210,2013-12-17 09:15:00
3:35 AM,41.0,35.6,81,30.16,10.0,WSW,4.6,-,N/A,,Clear,250,2013-12-17 09:35:00
3:55 AM,42.8,35.6,76,30.16,10.0,SW,5.8,-,N/A,,Clear,230,2013-12-17 09:55:00
4:15 AM,41.0,35.6,81,30.17,10.0,West,3.5,-,N/A,,Clear,270,2013-12-17 10:15:00
4:35 AM,41.0,35.6,81,30.17,10.0,West,3.5,-,N/A,,Clear,260,2013-12-17 10:35:00
4:55 AM,41.0,35.6,81,30.17,10.0,SW,3.5,-,N/A,,Clear,220,2013-12-17 10:55:00
5:30 AM,42.8,35.6,76,30.17,10.0,SSW,3.5,-,N/A,,Clear,210,2013-12-17 11:30:00
5:55 AM,42.8,35.6,76,30.17,10.0,SSW,3.5,-,N/A,,Partly Cloudy,210,2013-12-17 11:55:00
6:55 AM,41.0,35.6,81,30.17,10.0,SSW,3.5,-,N/A,,Partly Cloudy,210,2013-12-17 12:55:00
7:55 AM,42.8,35.6,76,30.19,10.0,SSW,3.5,-,N/A,,Partly Cloudy,210,2013-12-17 13:55:00
8:55 AM,46.4,39.2,76,30.21,10.0,WSW,8.1,-,N/A,,Partly Cloudy,250,2013-12-17 14:55:00
9:55 AM,51.8,39.2,62,30.22,10.0,WSW,6.9,-,N/A,,Partly Cloudy,240,2013-12-17 15:55:00
10:55 AM,55.4,39.2,54,30.21,10.0,WSW,6.9,-,N/A,,Partly Cloudy,240,2013-12-17 16:55:00
11:55 AM,57.2,41.0,55,30.19,10.0,WSW,6.9,-,N/A,,Partly Cloudy,240,2013-12-17 17:55:00
12:50 PM,60.8,41.0,48,30.19,10.0,West,9.2,-,N/A,,Clear,260,2013-12-17 18:50:00
1:50 PM,59.0,42.8,55,30.20,10.0,WNW,9.2,-,N/A,,Partly Cloudy,300,2013-12-17 19:50:00
2:50 PM,57.2,39.2,51,30.21,10.0,NW,9.2,-,N/A,,Partly Cloudy,310,2013-12-17 20:50:00
3:50 PM,53.6,39.2,58,30.24,10.0,NW,9.2,-,N/A,,Clear,320,2013-12-17 21:50:00
4:50 PM,51.8,37.4,58,30.25,10.0,NW,4.6,-,N/A,,Clear,320,2013-12-17 22:50:00
5:50 PM,46.4,37.4,71,30.25,10.0,Calm,Calm,-,N/A,,Clear,0,2013-12-17 23:50:00
6:55 PM,44.6,37.4,76,30.26,10.0,Calm,Calm,-,N/A,,Clear,0,2013-12-18 00:55:00
7:55 PM,41.0,35.6,81,30.26,10.0,Calm,Calm,-,N/A,,Clear,0,2013-12-18 01:55:00
8:55 PM,37.4,35.6,93,30.29,10.0,Calm,Calm,-,N/A,,Clear,0,2013-12-18 02:55:00
9:54 PM,37.4,35.6,93,30.29,10.0,Calm,Calm,-,N/A,,Clear,0,2013-12-18 03:54:00
10:54 PM,35.6,33.8,93,30.30,10.0,Calm,Calm,-,N/A,,Clear,0,2013-12-18 04:54:00
11:55 PM,32.0,30.2,93,30.30,10.0,Calm,Calm,-,N/A,,Clear,0,2013-12-18 05:55:00